Location: Recife
(8.0585°S, 34.8848°W)
Time: 09:57:42
(UTC-03:00)

Explorer 7 - Pass Details

Date: 18 April 2026
Orbit: 427 x 536 km, 50.2° (Epoch: 14 May)

Event Time Altitude Azimuth Distance (km) Brightness Sun altitude
Rises 10:38:27 0° 200° (SSW) 2,511 10.0 68.5°
Reaches altitude 10° 10:40:50 10° 186° (S) 1,653 9.2 68.8°
Maximum altitude 10:43:59 25° 129° (SE) 1,008 8.5 69.1°
Drops below altitude 10° 10:47:14 10° 71° (ENE) 1,700 9.7 69.4°
Sets 10:49:43 0° 58° (ENE) 2,601 10.5 69.6°
